Hourly Data Report for October 02, 2017

All times are specified in Local Standard Time (LST). Add 1 hour to adjust for Daylight Saving Time where and when it is observed.

BEAVER ISLAND (AUT)
NOVA SCOTIA

44°49'00.000" N
62°20'00.000" W
16.00 m
8200558
71403
WBV

Download Data

Hourly Data (October 2017)
Hourly Data Report for October 2, 2017
Temp Definition
°C
Dew Point Temp Definition
°C
Rel Hum Definition
%
Wind Dir Definition
10's deg

Wind Spd Definition
km/h
Visibility Definition
km
Stn Press Definition
kPa
Hmdx Definition


Wind Chill Definition


Weather Definition


TIME
00:00 11.3 LegendMM LegendMM 29 14   101.67     LegendNANA
01:00 11.6 LegendMM LegendMM 31 16   101.67     LegendNANA
02:00 11.1 LegendMM LegendMM 32 18   101.60     LegendNANA
03:00 10.4 LegendMM LegendMM 31 19   101.59     LegendNANA
04:00 10.8 LegendMM LegendMM 34 18   101.62     LegendNANA
05:00 10.8 LegendMM LegendMM 35 23   101.68     LegendNANA
06:00 11.3 LegendMM LegendMM 34 30   101.73     LegendNANA
07:00 12.2 LegendMM LegendMM 36 33   101.81     LegendNANA
08:00 12.9 LegendMM LegendMM 1 34   101.87     LegendNANA
09:00 14.4 LegendMM LegendMM 2 39   101.93     LegendNANA
10:00 14.7 LegendMM LegendMM 36 38   101.99     LegendNANA
11:00 14.4 LegendMM LegendMM 36 42   102.03     LegendNANA
12:00 13.4 LegendMM LegendMM 36 40   102.06     LegendNANA
13:00 13.8 LegendMM LegendMM 36 44   102.10     LegendNANA
14:00 13.2 LegendMM LegendMM 36 48   102.14     LegendNANA
15:00 13.2 LegendMM LegendMM 36 48   102.21     LegendNANA
16:00 11.8 LegendMM LegendMM 36 54   102.29     LegendNANA
17:00 11.1 LegendMM LegendMM 1 50   102.41     LegendNANA
18:00 10.8 LegendMM LegendMM 36 53   102.50     LegendNANA
19:00 9.8 LegendMM LegendMM 35 38   102.63     LegendNANA
20:00 9.6 LegendMM LegendMM 35 34   102.70     LegendNANA
21:00 9.6 LegendMM LegendMM 36 31   102.80     LegendNANA
22:00 10.1 LegendMM LegendMM 36 29   102.85     LegendNANA
23:00 10.1 LegendMM LegendMM 35 28   102.89     LegendNANA

Notes on Data Quality.

Legend

  • E = Estimated
  • M = Missing
  • NA = Not Available
  • ‡ = Partner data that is not subject to review by the National Climate Archives
Date modified: